sat.trackr.live / text

‹ back to catalog

STARLINK-32753

NORAD 62481 · 2024-254V

PAYLOAD ACTIVE UNKNOWN

§ Identity

Operator
Country
US
Launch date
2024-12-31
Launch site
AFETR
Launch vehicle
Mass (kg)
RCS (m²)

Purposes: comms

External: N2YO · Heavens-Above · Gunter

§ Orbital elements

Epoch: 2026-09-21T07:25:13.793952Z

Period
94.27 min
Inclination
43.0049°
Eccentricity
0.0000929
Mean motion
15.27545650 rev/d
Perigee alt
482.5 km
Apogee alt
483.8 km
Semi-major
6,861.3 km
B*
-2.5330e-4
RAAN
351.3344°
Arg perigee
242.8086°
Mean anomaly
117.2671°
Rev number
9,757

§ Raw data

STARLINK-327531 62481U 24254V   26264.30918743 -.00007218  00000+0 -25330-3 0  99982 62481  43.0049 351.3344 0000929 242.8086 117.2671 15.27545650 97579

JSON: /api/v1/satellites/62481 · /tle

For live sub-satellite position, see the globe view (requires WebGL).

§ Visibility from observer

Set your observer location to see the next 7 days of passes ≥ 10°. The values pass through the URL so the page stays shareable.

No JS? Fill the form by hand. The geolocation button needs JavaScript.